Volver al catálogo

NAVSTAR 14

USA 38

ActivoNavegaciónMEO
NORAD 20061·PAYLOAD·🇺🇸 United States

Lanzado Jun 10, 1989 desde Cape Canaveral Space Force Station

Loading…

Próximos Pases (próximas 24 horas)

TLE

ActualizadoSource: Space-Track

Época: Sep 14, 2026, 07:35 UTC

1 20061U 89044A   26257.31641782  .00000011  00000-0  00000-0 0  9990
2 20061  53.2666 236.4606 0028394 214.2611 144.4878  1.88858301263468

Sigue NAVSTAR 14 en tiempo real con AllMySat

Download on the App Store